www.pogodaiklimat.ru

Погода и климат >> Архив погоды >> Беларусь >> Житковичи


АРХИВ ПОГОДЫ в Житковичах

Время (UTC), дата Ветер
(напр.,м/с)
 
Видим.   Явления Облачность Т
(С)
Тd
(С)
f
(%)
Тe
(С)
Тes
(С)
Комфортность P
(гПа)
Po
(гПа)
Тmin
(С)
Tmax
(С)
R
(мм)
R24
(мм)
S
(см)
03 14.06 штиль 0 10 км 8/0
[Ac trans]
+15.4 +13.8 90 +15 +15 по сезону 1008.7 992.7
06 14.06 СВ 1 20 км 8/0
[Ac trans]
+20.8 +14.1 65 +25 +29 комфорт 1008.9 993.1 +14.5
09 14.06 Ю 2 20 км 9/5
[Cu hum Ac trans Ci sp]
+26.7 +12.2 41 +28 +33 жарко 1009.4 993.9
12 14.06 С 2 10 км 10/8 600 м
[Sc diur, vesp Ac und]
+24.8 +12.5 46 +27 +27 жарко 1009.2 993.6
15 14.06 СЗ 3 10 км 10/8 600 м
[Cb cap Ac und]
+23.0 +13.5 55 +26 +27 жарко 1009.3 993.6
18 14.06 С 3 4000 м слабый ливневой дождь 10/8 600 м
[Cb cap Ac und]
+18.8 +16.3 85 +20 +20 тепло 1009.9 994.0 +26.8 0.4
21 14.06 С 3 4000 м слабый ливневой дождь 10/8 600 м
[Cb cap Ac und]
+17.2 +15.5 90 +17 +17 тепло 1010.1 994.2
00 15.06 С 1 4000 м дымка {ливн. осадки} 10/3 600 м
[Cb cap Ac und]
+16.6 +15.8 95 +17 +17 тепло 1009.7 993.7
03 15.06 С 2 4000 м слабый ливневой дождь 10/8 600 м
[Cb cap Ac und]
+16.5 +15.9 96 +17 +17 тепло 1009.9 993.9
06 15.06 С 2 4000 м дымка {ливн. осадки} 10/6 600 м
[Cb cap Ac und]
+16.1 +15.1 94 +16 +17 по сезону 1010.2 994.2 +16.1 5
09 15.06 С 2 4000 м дымка 10/6 600 м
[Cb cap Ac und]
+16.3 +14.8 91 +16 +18 прохладно 1011.5 995.5
12 15.06 СЗ 3 10 км 9/9 600 м
[Sc]
+16.7 +14.4 86 +16 +18 холодно 1012.2 996.2
15 15.06 СЗ 2 10 км 10/8 600 м
[Sc Ac und]
+16.7 +13.9 84 +17 +17 прохладно 1012.7 996.7
18 15.06 СЗ 2 4000 м слабый ливневой дождь 10/8 600 м
[Cb cap Ac und]
+15.6 +14.4 93 +15 +15 прохладно 1013.5 997.5 +17.9 0.0
21 15.06 СЗ 1 4000 м дымка {ливн. осадки} 9/9 300 м
[Sc]
+14.9 +14.2 96 +15 +15 по сезону 1014.1 997.9
00 16.06 СЗ 2 4000 м дымка {ливн. осадки} 9/9 300 м
[Sc]
+14.6 +13.9 96 +14 +14 по сезону 1014.1 997.9
03 16.06 С 1 4000 м в посл. час ливневой дождь 10/8 600 м
[Cb cap Ac und]
+14.0 +13.4 96 +14 +14 по сезону 1014.1 997.9
06 16.06 С 1 10 км {ливн. осадки} 10/4 600 м
[Cb cap Ac und]
+14.8 +12.4 86 +15 +17 по сезону 1014.9 998.7 +13.7 0.8
09 16.06 С 2 4000 м слабый ливневой дождь 10/8 600 м
[Cb cap Ac und]
+15.2 +13.4 89 +15 +16 прохладно 1015.5 999.3
12 16.06 штиль 0 10 км {ливн. осадки} 10/4 600 м
[Sc diur, vesp Ac As]
+17.0 +13.0 77 +17 +21 прохладно 1016.3 1000.2
15 16.06 С 1 10 км 9/9 600 м
[Sc]
+17.6 +12.9 74 +19 +19 по сезону 1016.2 1000.2
18 16.06 В 1 10 км 8/3 600 м
[Sc Ci fib]
+17.6 +14.1 80 +19 +19 по сезону 1016.0 1000.0 +18.1 0.0
21 16.06 штиль 0 4000 м дымка 9/9 600 м
[Sc]
+14.3 +13.2 93 +14 +14 по сезону 1016.6 1000.4
00 17.06 штиль 0 4000 м дымка 8/8 600 м
[Sc]
+13.0 +12.6 97 +12 +12 по сезону 1016.9 1000.6
03 17.06 штиль 0 4000 м местами туман поземный 8/3 600 м
[Sc Ci fib]
+11.2 +11.0 99 +10 +11 прохладно 1017.0 1000.6
06 17.06 С 2 10 км 9/3 1000 м
[Cb cap Ci fib]
+18.4 +14.0 76 +19 +24 тепло 1016.7 1000.6 +10.9
09 17.06 С 3 20 км 8/6 600 м
[Cu med, cong Ci fib]
+21.7 +13.4 59 +24 +29 комфорт 1016.5 1000.7
12 17.06 СЗ 2 20 км 9/3 600 м
[Cu hum Ac trans Ci fib]
+23.7 +13.8 54 +26 +32 жарко 1015.8 1000.1
15 17.06 СЗ 3 20 км 8/3 1000 м
[Cb cap Ac trans Ci fib]
+24.0 +14.0 54 +26 +28 жарко 1015.1 999.4
18 17.06 С 1 10 км 10/4 600 м
[Cb cap Ac trans Cs]
+22.1 +14.9 64 +26 +26 душно 1015.3 999.5 +24.3
21 17.06 С 1 10 км 9/0
[Ac trans Ci fib]
+18.6 +15.2 81 +21 +21 комфорт 1015.9 999.9
00 18.06 С 1 10 км в посл. час гроза {ливн. осадки} 10/4 600 м
[Cb cap Ac As]
+17.8 +15.2 85 +19 +19 тепло 1016.0 1000.0
03 18.06 С 1 4000 м в посл. час гроза {ливн. осадки} 10/8 600 м
[Cb cap Ac und]
+16.9 +15.9 94 +18 +18 тепло 1015.8 999.7
06 18.06 С 2 10 км {гроза, ливн. осадки} 9/4 1000 м
[Cb cap Ac trans Ci fib]
+19.6 +17.1 85 +22 +25 комфорт 1015.3 999.4 +16.4 3
09 18.06 В 1 20 км {ливн. осадки} 8/3 1000 м
[Cb cap Ac trans Ci fib]
+22.2 +17.2 73 +27 +35 душно 1016.7 1000.9
12 18.06 В 2 20 км {ливн. осадки} 8/1 1000 м
[Cu med, cong Ci fib]
+26.7 +15.2 49 +29 +41 жарко 1016.2 1000.6
15 18.06 В 1 20 км 10/0
[Ac cuf Cs]
+27.3 +14.5 45 +30 +33 душно 1015.2 999.7
18 18.06 штиль 0 10 км 9/0
[Cs]
+24.9 +17.7 64 +29 +29 душно 1015.8 1000.2 +28.2 0.0
21 18.06 штиль 0 10 км 8/0
[Cs]
+19.6 +17.5 88 +22 +22 комфорт 1016.6 1000.7
00 19.06 штиль 0 4000 м слабый ливневой дождь 9/6 600 м
[Cb cap Ac trans]
+18.6 +16.8 89 +19 +19 тепло 1016.7 1000.7
03 19.06 ЮЗ 1 10 км {ливн. осадки} 10/4 600 м
[Cb cap Ac und]
+18.6 +16.6 88 +21 +21 комфорт 1017.0 1001.0
06 19.06 ЮЗ 1 10 км {ливн. осадки} 9/9 600 м
[Sc]
+19.6 +17.1 85 +23 +24 комфорт 1017.2 1001.3 +18.1 0.0
09 19.06 Ю 2 20 км 4/1 600 м
[Cu hum Ac trans]
+25.9 +16.4 56 +29 +41 душно 1017.0 1001.4
12 19.06 ЮЗ 3 20 км 9/4 600 м
[Cb cap Ac trans]
+27.9 +15.5 47 +31 +35 душно 1015.9 1000.4
15 19.06 З 2
{10}
20 км {ливн. осадки} 4/1 600 м
[Cb cap Ac trans Ci fib]
+28.3 +18.5 55 +33 +37 очень
душно
1014.9 999.4
18 19.06 З 1 20 км {ливн. осадки} 9/6 600 м
[Cb cap Ac cuf Ci ing]
+25.5 +16.8 59 +29 +29 душно 1015.5 999.9 +29.4 2
21 19.06 З 1 10 км 9/0
[Ci fib]
+20.8 +15.2 70 +25 +25 комфорт 1016.8 1000.9
00 20.06 СЗ 2 10 км 9/0
[Ci fib]
+18.8 +12.0 65 +20 +20 тепло 1018.2 1002.2
03 20.06 СЗ 2 10 км 6/0
[Ci fib]
+17.3 +12.1 71 +18 +18 тепло 1019.4 1003.2
06 20.06 З 3 20 км 3/0
[Ci fib]
+19.9 +12.4 62 +22 +28 комфорт 1020.0 1004.0 +17.1
09 20.06 З 4 20 км 3/3 600 м
[Cu hum]
+23.2 +16.1 64 +28 +35 душно 1019.5 1003.8
12 20.06 З 4
{11}
20 км 3/3 600 м
[Cu hum]
+27.0 +18.4 59 +32 +39 очень
душно
1018.1 1002.6
15 20.06 СЗ 3
{10}
20 км 3/1 600 м
[Cu hum Ci fib]
+27.4 +19.2 61 +33 +37 очень
душно
1017.2 1001.7
18 20.06 З 2 20 км 3/0
[Ci fib]
+25.3 +18.1 64 +30 +30 душно 1017.1 1001.5 +28.1
21 20.06 З 1 10 км ясно +20.3 +13.3 64 +24 +24 комфорт 1017.7 1001.8
00 21.06 штиль 0 10 км 3/0
[Ci fib]
+14.0 +11.5 85 +14 +14 по сезону 1018.0 1001.8

 

Местоположение метеостанции Житковичи (Гомельская область, Беларусь): широта 52.22 долгота 27.87 высота над уровнем моря 137 м.

В архиве по умолчанию представлена погода в Житковичах за последнюю неделю. Архивные данные за месяц целиком и за предыдущие месяцы, начиная с января 2011 года, Вы можете получить, выбрав интересующий диапазон дат из раскрывающегося списка и нажав кнопку "Ввод!".


*Определитесь, кто Вы:
робот инопланетянин человек

Внимание! Время в таблицах - всемирное. Для получения местного времени необходимо прибавить поправку, которая в Житковичах равна 3 ч.

Смотрите также архив погоды в соседних городах и на ближайших метеорологических станциях:

Погода в Полесской (Брестская область, Беларусь) (80 км)
Погода в Октябре (Гомельская область, Беларусь) (82 км)
Погода в Мозыре (Гомельская область, Беларусь) (92 км)
Погода в Слуцке (Минская область, Беларусь) (93 км)
Погода в Олевске (Житомирская область, Украина) (112 км)
Погода в Ганцевичах (Брестская область, Беларусь) (113 км)
Погода в Овруче (Житомирская область, Украина) (118 км)
Погода в Пинске (Брестская область, Беларусь) (124 км)
Погода в Василевичах (Гомельская область, Беларусь) (134 км)
Погода в Сарнах (Ровенская область, Украина) (135 км)

Пояснения к столбцам:

Ветер - указаны скорость ветра в м/с - средняя за 10 мин, порывы в срок и между сроками (в фигурных скобках) и направление, откуда дует ветер: С - северный, СВ - северо-восточный, В - восточный, ЮВ - юго-восточный, Ю - южный, ЮЗ - юго-западный, З - западный, СЗ - северо-западный.
Видимость - горизонтальная дальность видимости в метрах или километрах. При видимости от 1 до 10 км при отсутствии осадков обычно наблюдается дымка, при ухудшении видимости до 1 км и менее - туман. В сухую погоду видимость может ухудшаться дымом, пылью или мглою.
Явления - указаны атмосферные явления, наблюдавшиеся в срок или в последний час перед сроком; фигурными скобками обозначены явления, наблюдавшиеся между сроками (за 1-3 часа до срока); квадратными скобками обозначены град или гололедные отложения с указанием их диаметра в мм.
Облачность - указаны через наклонную черту общая и нижняя облачность в баллах и высота нижней границы облаков в метрах; квадратными скобками обозначены формы облаков: Ci - перистые, Cs - перисто-слоистые, Cc - перисто-кучевые, Ac - высококучевые, As - высокослоистые, Sc - слоисто-кучевые, Ns - слоисто-дождевые, Cu - кучевые, Cb - кучево-дождевые. Подробнее классификацию облаков см. в Атласе облаков (PDF).
T - Температура воздуха - температура, измеренная на высоте 2 м над землей.
Td - Температура точки росы - температура, при понижении до которой содержащийся в воздухе водяной пар достигнет насыщения.
f - Относительная влажность воздуха - влажноcть воздуха, измеренная на высоте 2 м над землей.
Te - Эффективная температура - температура, которую ощущает одетый по сезону человек в тени. Характеристика душности погоды. При расчете учитывается влияние влажности воздуха и скорости ветра на теплоощущения человека.
Tes - Эффективная температура на солнце - температура, которую ощущает человек, с поправкой на солнечный нагрев. Характеристика знойности погоды. Зависит от высоты солнца над горизонтом, облачности и скорости ветра. Ночью, в пасмурную погоду, а также при ветре 12 м/с и более поправка равна нулю.
P - Атмосферное давление - приведенное к уровню моря атмосферное давление.
Po - Атмосферное давление - измеренное на уровне метеостанции атмосферное давление.
Tmin - Минимальная температура - минимум температуры воздуха на высоте 2 м над землей.
Tmax - Максимальная температура - максимум температуры воздуха на высоте 2 м над землей.
R - Количество осадков - Количество выпавших осадков за период времени, мм. При наведении курсора мыши на число - период времени, за который выпало указанное количество осадков.
R24 - Количество осадков - Количество выпавших осадков за 24 часа, мм.
S - Снежный покров - Высота снежного покрова, см. При наведении курсора мыши на число - состояние снежного покрова и степень покрытия местности в баллах.